User: anonymous
Location: Caltech
(34.1382°N, 118.1253°W)
Time: 21:55:04
(UTC-07:00)
Language:

Oscar 16 - Orbit

View from above orbital plane
View from above orbital plane
View from above satellite
View from above satellite

Ground track
Ground track

The orbit data is extracted from the following two-line orbital elements,

1 20439U 90005D   14258.84279192  .00000114  00000-0  58328-4 0  1127
2 20439 098.5116 194.4920 0009809 248.2352 177.3538 14.32387008287468
Epoch (UTC): 15 September 2014 20:13:37
Eccentricity: 0.0009809
inclination: 98.5116°
perigee height: 777 km
apogee height: 791 km
right ascension of ascending node: 194.4920°
argument of perigee: 248.2352°
revolutions per day: 14.32387008
mean anomaly at epoch: 177.3538°
orbit number at epoch: 28746

The dashed part of the orbit path shows where the satellite is in the earth's shadow,  

DLR